Total_Precipitation_Accumulation
0.72 0.71 0.72 0.68 0.67 0.69 0.75 0.87 1.09 0.97 0.61 0.45 0.45 0.47 0.55 0.61 0.60 0.57 0.56 0.67 0.73 0.82 0.93 0.97 1.05 1.25 1.61 2.18 2.81 3.73 4.34 4.00 3.22 2.71 2.63 2.91 3.35 3.79
0.80 0.81 0.77 0.72 0.75 0.78 0.82 0.82 0.89 1.02 0.82 0.45 0.41 0.43 0.52 0.67 0.75 0.65 0.61 0.75 0.78 0.80 0.82 0.85 0.93 1.10 1.35 1.68 2.12 2.73 3.63 4.10 3.88 3.37 3.00 3.08 3.31 3.69
0.83 0.85 0.81 0.77 0.86 0.89 0.94 0.93 0.88 0.91 0.94 0.56 0.45 0.49 0.63 0.74 0.81 0.76 0.75 0.74 0.74 0.78 0.80 0.84 0.89 1.01 1.22 1.44 1.68 2.06 2.72 3.46 3.90 3.92 3.61 3.35 3.30 3.37
0.88 0.89 0.88 0.85 0.89 0.92 1.00 1.00 0.91 0.86 0.93 0.77 0.60 0.63 0.72 0.82 0.85 0.83 0.82 0.80 0.72 0.75 0.77 0.87 0.93 1.00 1.15 1.32 1.48 1.70 2.09 2.63 3.19 3.63 3.76 3.45 3.25 3.28
0.85 0.90 0.93 0.94 0.90 0.90 1.00 1.05 0.99 0.93 0.96 0.96 0.76 0.69 0.78 0.90 1.01 1.00 0.95 0.93 0.82 0.80 0.81 0.90 0.98 1.00 1.07 1.21 1.40 1.55 1.72 1.91 2.30 2.92 3.53 3.59 3.34 3.29
0.77 0.79 0.89 1.02 1.03 1.05 1.09 1.08 1.10 1.14 1.13 1.12 0.97 0.85 0.90 0.99 1.13 1.18 1.15 1.08 1.02 0.92 0.96 1.00 1.06 1.08 1.05 1.06 1.13 1.26 1.43 1.72 2.05 2.50 2.98 3.37 3.39 3.32
0.76 0.71 0.81 1.05 1.24 1.41 1.47 1.36 1.37 1.49 1.47 1.42 1.29 1.14 1.04 1.10 1.20 1.19 1.25 1.18 1.16 1.10 1.06 1.06 1.01 0.98 0.97 0.98 1.03 1.10 1.20 1.41 1.70 2.04 2.46 2.84 3.11 3.24
0.85 0.75 0.80 1.04 1.18 1.31 1.46 1.44 1.48 1.67 1.78 1.73 1.58 1.36 1.06 0.96 1.04 1.23 1.44 1.58 1.52 1.28 1.18 1.19 1.02 1.00 0.95 0.88 0.99 1.08 1.14 1.29 1.50 1.75 2.06 2.37 2.68 3.00
0.86 0.81 0.83 0.93 1.06 1.08 1.19 1.23 1.26 1.44 1.69 1.79 1.74 1.36 1.14 1.04 1.23 1.46 1.54 1.65 1.53 1.44 1.47 1.53 1.23 1.11 1.01 1.02 1.12 1.10 1.15 1.21 1.32 1.48 1.72 1.97 2.24 2.58
0.91 0.85 0.79 0.83 0.95 1.11 1.19 1.15 1.08 1.16 1.40 1.60 1.78 1.58 1.37 1.39 1.66 1.90 2.01 2.04 1.80 1.67 1.63 1.83 1.52 1.27 1.16 1.12 1.19 1.11 1.08 1.11 1.17 1.26 1.43 1.64 1.88 2.18
0.94 0.89 0.79 0.75 0.94 1.11 1.09 1.06 0.99 1.04 1.17 1.37 1.52 1.59 1.61 1.76 2.05 2.44 2.60 2.59 2.33 2.01 1.80 1.83 1.76 1.60 1.55 1.51 1.42 1.30 1.12 1.04 1.06 1.11 1.21 1.37 1.60 1.96
0.96 0.92 0.98 0.96 1.05 1.08 0.99 1.05 1.14 1.03 0.98 1.03 1.08 1.14 1.19 1.34 1.75 2.20 2.53 2.64 2.42 2.33 2.03 1.83 1.84 1.86 2.21 2.04 1.68 1.38 1.19 1.12 1.06 1.05 1.09 1.14 1.31 1.48
0.99 0.98 0.93 1.07 1.10 1.06 1.04 1.02 1.18 1.11 1.02 1.10 1.08 1.01 1.01 1.11 1.28 1.63 2.14 2.53 2.53 2.31 2.04 2.03 2.15 1.86 2.01 2.12 1.89 1.52 1.19 1.07 1.00 1.03 1.05 1.05 1.10 1.17
0.96 0.89 0.88 1.03 1.09 1.12 1.08 1.12 1.17 1.17 1.09 1.10 1.04 0.97 0.97 1.06 1.20 1.40 1.69 2.02 2.18 2.10 1.92 2.05 2.39 2.06 1.82 1.71 1.72 1.69 1.36 1.15 0.99 0.94 0.94 1.11 1.17 1.19
1.06 1.09 1.05 1.14 1.17 1.09 1.06 1.10 1.07 1.01 1.09 1.12 1.01 0.87 0.85 0.96 1.06 1.17 1.29 1.52 1.73 1.80 1.83 1.91 2.15 2.17 2.00 1.74 1.44 1.39 1.40 1.40 1.16 1.00 0.96 0.96 0.97 0.99
1.20 1.19 1.20 1.22 1.18 1.12 1.06 0.96 0.88 0.90 1.00 1.02 0.96 0.85 0.77 0.82 0.95 1.06 1.17 1.28 1.55 1.71 1.78 1.91 2.14 2.36 2.28 1.70 1.42 1.27 1.14 1.41 1.36 1.13 1.03 0.99 0.92 0.81
1.30 1.34 1.29 1.24 1.22 1.11 0.97 0.85 0.82 0.86 0.92 0.88 0.89 0.89 0.85 0.84 0.86 0.94 1.12 1.23 1.41 1.54 1.72 1.99 2.24 2.35 2.39 2.11 1.77 1.37 1.10 1.10 1.19 1.14 1.08 1.10 1.10 0.95
1.33 1.32 1.16 1.01 0.97 0.92 0.86 0.81 0.78 0.77 0.76 0.80 0.85 0.86 0.85 0.86 0.87 0.89 1.03 1.20 1.33 1.40 1.50 1.73 2.09 2.38 2.55 2.55 2.08 1.51 1.20 1.14 1.24 1.23 1.11 1.10 1.20 1.13
1.12 1.00 0.90 0.85 0.81 0.78 0.75 0.73 0.73 0.68 0.68 0.74 0.79 0.81 0.79 0.84 0.88 0.91 0.97 1.10 1.23 1.34 1.47 1.58 1.83 2.15 2.31 2.46 2.47 1.86 1.40 1.24 1.33 1.48 1.33 1.10 1.07 1.14
0.85 0.83 0.82 0.80 0.82 0.84 0.81 0.77 0.73 0.72 0.73 0.71 0.71 0.73 0.77 0.84 0.87 0.87 0.91 1.04 1.15 1.25 1.39 1.51 1.71 1.94 2.07 2.02 2.11 2.13 1.91 1.51 1.35 1.51 1.51 1.32 1.20 1.29
0.78 0.78 0.78 0.80 0.85 0.87 0.81 0.78 0.76 0.72 0.68 0.67 0.66 0.65 0.69 0.77 0.80 0.78 0.85 0.96 1.06 1.15 1.25 1.36 1.55 1.73 1.89 1.90 1.82 1.83 2.02 2.01 1.57 1.43 1.48 1.49 1.43 1.41
0.77 0.79 0.78 0.80 0.85 0.87 0.84 0.80 0.78 0.74 0.68 0.65 0.63 0.62 0.63 0.70 0.75 0.76 0.83 0.90 0.93 1.01 1.12 1.26 1.42 1.61 1.80 1.92 1.84 1.70 1.83 2.04 2.02 1.76 1.56 1.43 1.40 1.39
0.83 0.84 0.83 0.82 0.82 0.83 0.84 0.79 0.76 0.73 0.69 0.66 0.63 0.62 0.64 0.68 0.69 0.75 0.80 0.83 0.88 0.93 1.03 1.21 1.39 1.53 1.72 1.84 1.85 1.71 1.66 1.78 1.82 1.80 1.88 1.62 1.21 0.97